This demonstration page uses our WeatherBlox Daily Observations layout. Learn more.

Left ArrowRight Arrow

31.84235, -102.49876

Hourly Observations for March 27, 2015

Temp ( °F °C ) Dew Point ( °F °C ) Humidity (%) Winds ( mph kmh ) Pressure ( in mb ) Visibility ( mi km ) Precip ( " mm )
12:53 am 00:53 undefined 47 8.3 32 0 56 56 WSW 6 9 30.19 1023 10 16 0.00 0.00
1:53 am 01:53 Clear 47 8.3 29 -1.7 50 50 SSW 5 7 30.17 1022 10 16 0.00 0.00
2:53 am 02:53 Clear 45 7.2 29 -1.7 54 54 WSW 5 7 30.16 1021 10 16 0.00 0.00
3:53 am 03:53 Clear 44 6.7 28 -2.2 53 53 SW 5 7 30.15 1021 10 16 0.00 0.00
4:53 am 04:53 Clear 43 6.1 29 -1.7 58 58 SW 6 9 30.13 1020 10 16 0.00 0.00
5:53 am 05:53 Clear 42 5.6 30 -1.1 62 62 W 8 13 30.14 1021 10 16 0.00 0.00
6:53 am 06:53 Clear 40 4.4 31 -0.6 70 70 W 8 13 30.16 1021 10 16 0.00 0.00
7:53 am 07:53 Sunny 42 5.6 32 0 68 68 WSW 6 9 30.15 1021 10 16 0.00 0.00
8:53 am 08:53 undefined 49 9.4 34 1.1 56 56 Calm 30.15 1021 10 16 0.00 0.00
9:53 am 09:53 Sunny 58 14.4 35 1.7 42 42 SW 9 15 30.15 1021 10 16 0.00 0.00
10:53 am 10:53 Sunny 63 17.2 30 -1.1 29 29 SW 13 20 30.16 1021 10 16 0.00 0.00
11:53 am 11:53 Sunny 68 20 34 1.1 28 28 WSW 14 22 30.15 1021 10 16 0.00 0.00
12:53 pm 12:53 Sunny 73 22.8 31 -0.6 21 21 WSW 17 28 30.14 1021 10 16 0.00 0.00
1:53 pm 13:53 Sunny 74 23.3 27 -2.8 17 17 SW 14 22 30.12 1020 10 16 0.00 0.00
2:53 pm 14:53 Sunny 76 24.4 25 -3.9 15 15 WSW 14 22 30.09 1019 10 16 0.00 0.00
3:53 pm 15:53 Sunny 77 25 26 -3.3 15 15 W 13 20 30.06 1018 10 16 0.00 0.00
4:53 pm 16:53 Sunny 77 25 26 -3.3 15 15 SW 13 20 30.04 1017 10 16 0.00 0.00
5:53 pm 17:53 Sunny 77 25 25 -3.9 14 14 SSW 10 17 30.02 1017 10 16 0.00 0.00
6:53 pm 18:53 Sunny 77 25 27 -2.8 16 16 SSW 10 17 30.01 1016 10 16 0.00 0.00
7:53 pm 19:53 Sunny 72 22.2 29 -1.7 20 20 S 9 15 30.01 1016 10 16 0.00 0.00
8:53 pm 20:53 Clear 66 18.9 32 0 28 28 SSE 8 13 30.02 1017 10 16 0.00 0.00
9:53 pm 21:53 Clear 63 17.2 32 0 31 31 SSE 7 11 30.03 1017 10 16 0.00 0.00
10:53 pm 22:53 Clear 65 18.3 32 0 29 29 S 14 22 30.03 1017 10 16 0.00 0.00
11:53 pm 23:53 Clear 64 17.8 33 0.6 32 32 S 16 26 30.02 1017 10 16 0.00 0.00

Powered by AerisWeather